Flag for India Weather past 2 weeks in Vasai-Virar, Maharashtra, India

Now
84 °F

Drizzle. More clouds than sun.


Feels Like: 96 °F
Forecast: 79 / 85 °F
Wind: 15 mph from West

Location: Mumbai / Santacruz

Current Time: Aug 5, 2015 at 1:00:57 PM

Latest Report: Aug 5, 2015 at 12:10 PM


Visibility: 2 mi

Pressure: 29.74 "Hg

Humidity: 84%

Dew point: 79 °F

Location of Vasai-VirarLocation

Historic Weather in Vasai-Virar — Graph

°F

Vasai-Virar temperature yesterday

Maximum temperature yesterday: 86 °F (at 10:40 AM)
Minimum temperature yesterday: 82 °F (at 12:10 AM)
Average temperature yesterday: 84 °F

Past Weeks' High & Low Weather Summary

 TemperatureHumidityPressure
High88 °F (Jul 26, 1:10 PM)100% (Jul 22, 8:10 PM)29.86 "Hg (Jul 22, 8:10 PM)
Low77 °F (Jul 22, 8:10 PM)62% (Aug 3, 1:10 PM)29.59 "Hg (Jul 21, 2:10 PM)
Average83 °F83%29.72 "Hg
* Reported Jul 21 12:10 PM — Aug 5 11:40 AM, Vasai-Virar, Weather by CustomWeather, © 2015

Note: Actual official high and low records may vary slightly from our data, if they occured in-between our weather recording intervals... More about our weather records

Advertising

Vasai-Virar weather history for previous 24 hours

 ConditionsComfort  
Time TempWeatherWind HumidityBarometerVisibility
11:40 AM
Wed, Aug 5
84 °FMore clouds than sun.14 mph79%29.74 "Hg2 mi
11:10 AM84 °FMore clouds than sun.14 mph79%29.74 "Hg2 mi
10:40 AM84 °FMore clouds than sun.14 mph79%29.74 "Hg2 mi
10:10 AM84 °FMore clouds than sun.15 mph79%29.74 "Hg2 mi
9:40 AM84 °FMore clouds than sun.13 mph79%29.77 "Hg2 mi
9:10 AM82 °FMore clouds than sun.14 mph84%29.74 "Hg2 mi
8:40 AM82 °FMore clouds than sun.14 mph84%29.74 "Hg2 mi
8:10 AM82 °FMore clouds than sun.14 mph84%29.71 "Hg2 mi
7:40 AM82 °FBroken clouds.16 mph84%29.71 "Hg2 mi
7:10 AM82 °FBroken clouds.9 mph84%29.71 "Hg2 mi
6:40 AM82 °FPartly cloudy.15 mph84%29.71 "Hg2 mi
6:10 AM82 °FPartly cloudy.14 mph84%29.71 "Hg2 mi
5:40 AM82 °FPartly cloudy.13 mph84%29.71 "Hg2 mi
5:10 AM82 °FPartly cloudy.14 mph84%29.71 "Hg2 mi
4:40 AM82 °FPartly cloudy.13 mph84%29.68 "Hg2 mi
3:10 AM82 °FPartly cloudy.10 mph84%29.68 "Hg2 mi
2:40 AM82 °FPartly cloudy.15 mph79%29.68 "Hg2 mi
1:40 AM82 °FPartly cloudy.15 mph84%29.71 "Hg2 mi
1:10 AM82 °FPartly cloudy.14 mph84%29.71 "Hg2 mi
12:40 AM82 °FPartly cloudy.12 mph84%29.74 "Hg2 mi
11:40 PM
Tue, Aug 4
82 °FPartly cloudy.15 mph84%29.74 "Hg2 mi
10:40 PM82 °FPartly cloudy.12 mph84%29.74 "Hg2 mi
10:10 PM82 °FPartly cloudy.15 mph79%29.74 "Hg2 mi
9:40 PM82 °FPartly cloudy.15 mph84%29.74 "Hg2 mi
9:10 PM84 °FPartly cloudy.9 mph79%29.74 "Hg2 mi
8:40 PM84 °FPartly cloudy.15 mph79%29.71 "Hg2 mi
7:40 PM84 °FBroken clouds.15 mph74%29.68 "Hg2 mi
7:10 PM84 °FBroken clouds.16 mph79%29.68 "Hg2 mi
6:40 PM84 °FMore clouds than sun.16 mph79%29.68 "Hg2 mi
6:10 PM84 °FMore clouds than sun.14 mph79%29.68 "Hg2 mi
5:40 PM84 °FMore clouds than sun.14 mph79%29.71 "Hg2 mi
5:10 PM84 °FMore clouds than sun.14 mph79%29.71 "Hg2 mi
4:40 PM84 °FMore clouds than sun.15 mph79%29.71 "Hg2 mi
4:10 PM86 °FMore clouds than sun.12 mph70%29.71 "Hg2 mi
3:40 PM86 °FMore clouds than sun.14 mph70%29.71 "Hg2 mi
3:10 PM86 °FMore clouds than sun.12 mph70%29.71 "Hg3 mi
2:40 PM86 °FMore clouds than sun.14 mph70%29.74 "Hg3 mi
1:40 PM86 °FBroken clouds.13 mph70%29.74 "Hg3 mi
1:10 PM86 °FBroken clouds.9 mph70%29.77 "Hg3 mi
Weather by CustomWeather, © 2015

See weather overviewHow to use our weather pages